TimeCDT,TemperatureF,Dew PointF,Humidity,Sea Level PressureIn,VisibilityMPH,Wind Direction,Wind SpeedMPH,Gust SpeedMPH,PrecipitationIn,Events,Conditions,WindDirDegrees,DateUTC
12:52 AM,81.0,60.1,49,29.97,10.0,ESE,6.9,-,N/A,,Clear,120,2013-07-11 05:52:00
1:52 AM,80.1,60.1,50,29.95,10.0,ESE,9.2,-,N/A,,Clear,110,2013-07-11 06:52:00
2:52 AM,79.0,60.1,52,29.94,10.0,ESE,8.1,-,N/A,,Clear,110,2013-07-11 07:52:00
3:52 AM,79.0,61.0,54,29.93,10.0,ESE,9.2,-,N/A,,Clear,110,2013-07-11 08:52:00
4:52 AM,77.0,62.1,60,29.94,10.0,ESE,8.1,-,N/A,,Scattered Clouds,110,2013-07-11 09:52:00
5:52 AM,77.0,62.1,60,29.94,10.0,East,10.4,-,N/A,,Partly Cloudy,90,2013-07-11 10:52:00
6:52 AM,77.0,62.1,60,29.96,10.0,ESE,9.2,-,N/A,,Clear,110,2013-07-11 11:52:00
7:52 AM,77.0,62.1,60,29.96,10.0,SE,8.1,-,N/A,,Clear,130,2013-07-11 12:52:00
8:52 AM,78.1,62.1,58,30.00,10.0,ENE,9.2,-,N/A,,Partly Cloudy,60,2013-07-11 13:52:00
9:52 AM,75.9,62.1,62,30.03,10.0,NNE,15.0,20.7,N/A,,Mostly Cloudy,30,2013-07-11 14:52:00
10:52 AM,73.9,64.0,71,30.02,10.0,ENE,17.3,26.5,N/A,,Clear,70,2013-07-11 15:52:00
11:52 AM,82.0,62.1,51,30.00,10.0,East,17.3,25.3,N/A,,Clear,100,2013-07-11 16:52:00
12:52 PM,86.0,63.0,46,29.98,10.0,ESE,18.4,26.5,N/A,,Clear,120,2013-07-11 17:52:00
1:52 PM,88.0,66.9,49,29.95,10.0,SE,13.8,21.9,N/A,,Clear,130,2013-07-11 18:52:00
2:52 PM,91.0,64.0,41,29.93,10.0,SSE,12.7,-,N/A,,Clear,160,2013-07-11 19:52:00
3:52 PM,93.9,61.0,33,29.91,10.0,SSE,16.1,20.7,N/A,,Clear,160,2013-07-11 20:52:00
4:52 PM,93.9,64.0,37,29.89,10.0,SE,13.8,-,N/A,,Clear,130,2013-07-11 21:52:00
5:52 PM,93.9,64.0,37,29.87,10.0,ESE,12.7,20.7,N/A,,Clear,120,2013-07-11 22:52:00
6:52 PM,91.9,64.0,39,29.87,10.0,SE,13.8,-,N/A,,Clear,130,2013-07-11 23:52:00
7:52 PM,89.1,64.9,45,29.88,10.0,ESE,13.8,-,N/A,,Clear,110,2013-07-12 00:52:00
8:52 PM,84.9,64.9,51,29.88,10.0,ESE,11.5,-,N/A,,Clear,120,2013-07-12 01:52:00
9:52 PM,82.9,64.9,54,29.90,10.0,ESE,11.5,-,N/A,,Clear,110,2013-07-12 02:52:00
10:52 PM,81.0,63.0,54,29.92,10.0,ESE,9.2,-,N/A,,Clear,120,2013-07-12 03:52:00
11:52 PM,79.0,62.1,56,29.92,10.0,ESE,8.1,-,N/A,,Clear,120,2013-07-12 04:52:00